owner,sensor,date,latitude,longitude,vertical_datum,direction_of_sea_water_velocity,sea_water_speed,upward_sea_water_velocity,qcFlag 
TABS,ioos:station:wmo:42050:1,2007-11-01T00:00:00Z,28.8425,-94.2433,2.0,270.0004209,7.0,-99999.0,'11133222,11111222,99999999' 
TABS,ioos:station:wmo:42050:1,2007-11-01T00:30:00Z,28.8425,-94.2433,2.0,214.9213258,4.000312488,-99999.0,'11133222,11111222,99999999' 
TABS,ioos:station:wmo:42050:1,2007-11-01T01:00:00Z,28.8425,-94.2433,2.0,236.9457407,3.996861269,-99999.0,'11133222,11111222,99999999' 
TABS,ioos:station:wmo:42050:1,2007-11-01T01:30:00Z,28.8425,-94.2433,2.0,179.9997895,3.0,-99999.0,'11133222,11111222,99999999' 
TABS,ioos:station:wmo:42050:1,2007-11-01T02:00:00Z,28.8425,-94.2433,2.0,179.9997895,5.0,-99999.0,'11133222,11111222,99999999' 
TABS,ioos:station:wmo:42050:1,2007-11-01T02:30:00Z,28.8425,-94.2433,2.0,162.0478705,6.002216257,-99999.0,'11133222,11111222,99999999' 
TABS,ioos:station:wmo:42050:1,2007-11-01T03:00:00Z,28.8425,-94.2433,2.0,151.9610765,7.998824914,-99999.0,'11133222,11111222,99999999' 
TABS,ioos:station:wmo:42050:1,2007-11-01T03:30:00Z,28.8425,-94.2433,2.0,161.9830928,12.99730741,-99999.0,'11111222,11111222,99999999' 
TABS,ioos:station:wmo:42050:1,2007-11-01T04:00:00Z,28.8425,-94.2433,2.0,179.9997895,10.0,-99999.0,'11111222,11111222,99999999' 
TABS,ioos:station:wmo:42050:1,2007-11-01T04:30:00Z,28.8425,-94.2433,2.0,195.0203646,12.00000833,-99999.0,'11111222,11111222,99999999' 
TABS,ioos:station:wmo:42050:1,2007-11-01T05:00:00Z,28.8425,-94.2433,2.0,197.0182428,11.0017635,-99999.0,'11111222,11111222,99999999' 
TABS,ioos:station:wmo:42050:1,2007-11-01T05:30:00Z,28.8425,-94.2433,2.0,197.0182428,11.0017635,-99999.0,'11111222,11111222,99999999' 
TABS,ioos:station:wmo:42050:1,2007-11-01T06:00:00Z,28.8425,-94.2433,2.0,197.0182428,11.0017635,-99999.0,'11111222,11111222,99999999' 
TABS,ioos:station:wmo:42050:1,2007-11-01T06:30:00Z,28.8425,-94.2433,2.0,193.9825328,12.99506445,-99999.0,'11111222,11111222,99999999' 
TABS,ioos:station:wmo:42050:1,2007-11-01T07:00:00Z,28.8425,-94.2433,2.0,192.0119851,16.00035625,-99999.0,'11111222,11111222,99999999' 
TABS,ioos:station:wmo:42050:1,2007-11-01T07:30:00Z,28.8425,-94.2433,2.0,195.0003945,15.99506486,-99999.0,'11111222,11111222,99999999' 
TABS,ioos:station:wmo:42050:1,2007-11-01T08:30:00Z,28.8425,-94.2433,2.0,206.984178,10.99727694,-99999.0,'11111222,11111222,99999999' 
TABS,ioos:station:wmo:42050:1,2007-11-01T09:00:00Z,28.8425,-94.2433,2.0,242.0066146,13.99766052,-99999.0,'11111222,11111222,99999999' 
TABS,ioos:station:wmo:42050:1,2007-11-01T09:30:00Z,28.8425,-94.2433,2.0,213.0050998,12.99755362,-99999.0,'11111222,11111222,99999999' 
TABS,ioos:station:wmo:42050:1,2007-11-01T10:00:00Z,28.8425,-94.2433,2.0,217.9852615,14.996843,-99999.0,'11111222,11111222,99999999' 
TABS,ioos:station:wmo:42050:1,2007-11-01T10:30:00Z,28.8425,-94.2433,2.0,213.0011619,15.00017667,-99999.0,'11111222,11111222,99999999' 
TABS,ioos:station:wmo:42050:1,2007-11-01T11:00:00Z,28.8425,-94.2433,2.0,205.998448,19.00303397,-99999.0,'11111222,11111222,99999999' 
TABS,ioos:station:wmo:42050:1,2007-11-01T11:30:00Z,28.8425,-94.2433,2.0,209.9949911,21.00300217,-99999.0,'11111222,11111222,99999999' 
TABS,ioos:station:wmo:42050:1,2007-11-01T12:30:00Z,28.8425,-94.2433,2.0,214.9992377,25.00131997,-99999.0,'11111222,11111222,99999999' 
TABS,ioos:station:wmo:42050:1,2007-11-01T13:00:00Z,28.8425,-94.2433,2.0,212.9930976,26.003494,-99999.0,'11111222,11111222,99999999' 
TABS,ioos:station:wmo:42050:1,2007-11-01T13:30:00Z,28.8425,-94.2433,2.0,211.9995776,22.0034361,-99999.0,'11111222,11111222,99999999' 
TABS,ioos:station:wmo:42050:1,2007-11-01T14:30:00Z,28.8425,-94.2433,2.0,234.0083994,20.99846899,-99999.0,'11111222,11111222,99999999' 
TABS,ioos:station:wmo:42050:1,2007-11-01T15:00:00Z,28.8425,-94.2433,2.0,221.9942476,28.99590488,-99999.0,'11111222,11111222,99999999' 
TABS,ioos:station:wmo:42050:1,2007-11-01T15:30:00Z,28.8425,-94.2433,2.0,224.000286,30.00003333,-99999.0,'11111222,11111222,99999999' 
TABS,ioos:station:wmo:42050:1,2007-11-01T16:00:00Z,28.8425,-94.2433,2.0,224.9996843,32.00365292,-99999.0,'11111222,11111222,99999999' 
TABS,ioos:station:wmo:42050:1,2007-11-01T16:30:00Z,28.8425,-94.2433,2.0,230.0069272,29.0030688,-99999.0,'11111222,11111222,99999999' 
TABS,ioos:station:wmo:42050:1,2007-11-01T17:00:00Z,28.8425,-94.2433,2.0,230.9963628,30.99948709,-99999.0,'11111222,11111222,99999999' 
TABS,ioos:station:wmo:42050:1,2007-11-01T17:30:00Z,28.8425,-94.2433,2.0,233.0008688,32.00408099,-99999.0,'11111222,11111222,99999999' 
TABS,ioos:station:wmo:42050:1,2007-11-01T18:00:00Z,28.8425,-94.2433,2.0,239.0008002,27.99886426,-99999.0,'11111222,11111222,99999999' 
TABS,ioos:station:wmo:42050:1,2007-11-01T18:30:00Z,28.8425,-94.2433,2.0,242.000896,31.99473238,-99999.0,'11111222,11111222,99999999' 
TABS,ioos:station:wmo:42050:1,2007-11-01T19:00:00Z,28.8425,-94.2433,2.0,243.0075496,36.0016944,-99999.0,'11111222,11111222,99999999' 
TABS,ioos:station:wmo:42050:1,2007-11-01T20:00:00Z,28.8425,-94.2433,2.0,240.0002539,43.00078604,-99999.0,'11111222,11111222,99999999' 
TABS,ioos:station:wmo:42050:1,2007-11-01T20:30:00Z,28.8425,-94.2433,2.0,237.0048114,48.00174164,-99999.0,'11111222,11111222,99999999' 
TABS,ioos:station:wmo:42050:1,2007-11-01T21:00:00Z,28.8425,-94.2433,2.0,244.9950519,44.99743104,-99999.0,'11111222,11111222,99999999' 
TABS,ioos:station:wmo:42050:1,2007-11-01T21:30:00Z,28.8425,-94.2433,2.0,252.0013979,38.99834099,-99999.0,'11111222,11111222,99999999' 
TABS,ioos:station:wmo:42050:1,2007-11-01T22:00:00Z,28.8425,-94.2433,2.0,257.0038319,36.99763371,-99999.0,'11111222,11111222,99999999' 
TABS,ioos:station:wmo:42050:1,2007-11-01T22:30:00Z,28.8425,-94.2433,2.0,264.0024259,37.99796047,-99999.0,'11111222,11111222,99999999' 
TABS,ioos:station:wmo:42050:1,2007-11-01T23:00:00Z,28.8425,-94.2433,2.0,259.9997173,41.00291209,-99999.0,'11111222,11111222,99999999' 
TABS,ioos:station:wmo:42050:1,2007-11-01T23:30:00Z,28.8425,-94.2433,2.0,275.0077569,32.99592854,-99999.0,'11111222,11111222,99999999' 
TABS,ioos:station:wmo:42050:1,2007-11-02T00:00:00Z,28.8425,-94.2433,2.0,278.0012975,37.00016351,-99999.0,'11111222,11111222,99999999' 
TABS,ioos:station:wmo:42050:1,2007-11-02T00:30:00Z,28.8425,-94.2433,2.0,281.0005581,36.99981081,-99999.0,'11111222,11111222,99999999' 
TABS,ioos:station:wmo:42050:1,2007-11-02T01:00:00Z,28.8425,-94.2433,2.0,284.0018906,35.99956944,-99999.0,'11111222,11111222,99999999' 
TABS,ioos:station:wmo:42050:1,2007-11-02T02:00:00Z,28.8425,-94.2433,2.0,286.9959884,34.99848282,-99999.0,'11111222,11111222,99999999' 
TABS,ioos:station:wmo:42050:1,2007-11-02T02:30:00Z,28.8425,-94.2433,2.0,288.0037392,34.00493641,-99999.0,'11111222,11111222,99999999' 
TABS,ioos:station:wmo:42050:1,2007-11-02T03:00:00Z,28.8425,-94.2433,2.0,287.9979638,28.99893101,-99999.0,'11111222,11111222,99999999' 
TABS,ioos:station:wmo:42050:1,2007-11-02T03:30:00Z,28.8425,-94.2433,2.0,283.9919663,28.00074642,-99999.0,'11111222,11111222,99999999' 
TABS,ioos:station:wmo:42050:1,2007-11-02T04:00:00Z,28.8425,-94.2433,2.0,282.0113034,20.99972619,-99999.0,'11111222,11111222,99999999' 
TABS,ioos:station:wmo:42050:1,2007-11-02T04:30:00Z,28.8425,-94.2433,2.0,279.0057976,19.99648469,-99999.0,'11111222,11111222,99999999' 
TABS,ioos:station:wmo:42050:1,2007-11-02T05:00:00Z,28.8425,-94.2433,2.0,270.0004209,17.0,-99999.0,'11111222,11111222,99999999' 
TABS,ioos:station:wmo:42050:1,2007-11-02T06:00:00Z,28.8425,-94.2433,2.0,251.9828823,12.99730741,-99999.0,'11111222,11111222,99999999' 
TABS,ioos:station:wmo:42050:1,2007-11-02T06:30:00Z,28.8425,-94.2433,2.0,246.0163673,13.9985785,-99999.0,'11111222,11111222,99999999' 
TABS,ioos:station:wmo:42050:1,2007-11-02T07:00:00Z,28.8425,-94.2433,2.0,238.9900532,15.00441602,-99999.0,'11111222,11111222,99999999' 
TABS,ioos:station:wmo:42050:1,2007-11-02T07:30:00Z,28.8425,-94.2433,2.0,242.0093005,16.00178115,-99999.0,'11111222,11111222,99999999' 
TABS,ioos:station:wmo:42050:1,2007-11-02T08:00:00Z,28.8425,-94.2433,2.0,238.9838763,17.00066175,-99999.0,'11111222,11111222,99999999' 
TABS,ioos:station:wmo:42050:1,2007-11-02T22:00:00Z,28.8425,-94.2433,2.0,244.9977427,30.0013083,-99999.0,'11111222,11111222,99999999' 
TABS,ioos:station:wmo:42050:1,2007-11-02T22:30:00Z,28.8425,-94.2433,2.0,250.9970496,30.00516289,-99999.0,'11111222,11111222,99999999' 
TABS,ioos:station:wmo:42050:1,2007-11-02T23:00:00Z,28.8425,-94.2433,2.0,254.9957503,27.00049074,-99999.0,'11111222,11111222,99999999' 
TABS,ioos:station:wmo:42050:1,2007-11-02T23:30:00Z,28.8425,-94.2433,2.0,256.9942544,23.99550791,-99999.0,'11111222,11111222,99999999' 
TABS,ioos:station:wmo:42050:1,2007-11-03T00:00:00Z,28.8425,-94.2433,2.0,258.0015405,24.00438502,-99999.0,'11111222,11111222,99999999' 
TABS,ioos:station:wmo:42050:1,2007-11-03T00:30:00Z,28.8425,-94.2433,2.0,261.0082202,27.00180179,-99999.0,'11111222,11111222,99999999' 
TABS,ioos:station:wmo:42050:1,2007-11-03T01:00:00Z,28.8425,-94.2433,2.0,263.9938,28.00370333,-99999.0,'11111222,11111222,99999999' 
TABS,ioos:station:wmo:42050:1,2007-11-03T01:30:00Z,28.8425,-94.2433,2.0,266.0054669,29.0004362,-99999.0,'11111222,11111222,99999999' 
TABS,ioos:station:wmo:42050:1,2007-11-03T02:00:00Z,28.8425,-94.2433,2.0,270.0004209,27.0,-99999.0,'11111222,11111222,99999999' 
TABS,ioos:station:wmo:42050:1,2007-11-03T02:30:00Z,28.8425,-94.2433,2.0,273.0094376,24.00309355,-99999.0,'11111222,11111222,99999999' 
TABS,ioos:station:wmo:42050:1,2007-11-03T03:00:00Z,28.8425,-94.2433,2.0,273.0101896,19.99758485,-99999.0,'11111222,11111222,99999999' 
TABS,ioos:station:wmo:42050:1,2007-11-03T03:30:00Z,28.8425,-94.2433,2.0,274.9935014,17.00452881,-99999.0,'11111222,11111222,99999999' 
TABS,ioos:station:wmo:42050:1,2007-11-03T04:00:00Z,28.8425,-94.2433,2.0,270.0004209,16.0,-99999.0,'11111222,11111222,99999999' 
TABS,ioos:station:wmo:42050:1,2007-11-03T04:30:00Z,28.8425,-94.2433,2.0,262.9930076,15.0020332,-99999.0,'11111222,11111222,99999999' 
TABS,ioos:station:wmo:42050:1,2007-11-03T05:00:00Z,28.8425,-94.2433,2.0,260.9847695,11.99820403,-99999.0,'11111222,11111222,99999999' 
TABS,ioos:station:wmo:42050:1,2007-11-03T05:30:00Z,28.8425,-94.2433,2.0,250.9911323,12.00460745,-99999.0,'11111222,11111222,99999999' 
TABS,ioos:station:wmo:42050:1,2007-11-03T06:00:00Z,28.8425,-94.2433,2.0,238.9594571,8.99853877,-99999.0,'11133222,11111222,99999999' 
TABS,ioos:station:wmo:42050:1,2007-11-03T06:30:00Z,28.8425,-94.2433,2.0,224.9996843,11.00258152,-99999.0,'11111222,11111222,99999999' 
TABS,ioos:station:wmo:42050:1,2007-11-03T07:00:00Z,28.8425,-94.2433,2.0,224.000286,15.00001667,-99999.0,'11111222,11111222,99999999' 
TABS,ioos:station:wmo:42050:1,2007-11-03T07:30:00Z,28.8425,-94.2433,2.0,224.000286,15.00001667,-99999.0,'11111222,11111222,99999999' 
TABS,ioos:station:wmo:42050:1,2007-11-03T08:00:00Z,28.8425,-94.2433,2.0,224.9996843,16.99884702,-99999.0,'11111222,11111222,99999999' 
TABS,ioos:station:wmo:42050:1,2007-11-03T08:30:00Z,28.8425,-94.2433,2.0,221.9821718,17.99961111,-99999.0,'11111222,11111222,99999999' 
TABS,ioos:station:wmo:42050:1,2007-11-03T09:00:00Z,28.8425,-94.2433,2.0,228.0079814,18.99785514,-99999.0,'11111222,11111222,99999999' 
TABS,ioos:station:wmo:42050:1,2007-11-03T09:30:00Z,28.8425,-94.2433,2.0,224.9996843,18.00293865,-99999.0,'11111222,11111222,99999999' 
TABS,ioos:station:wmo:42050:1,2007-11-03T10:00:00Z,28.8425,-94.2433,2.0,220.992192,16.99798223,-99999.0,'11111222,11111222,99999999' 
TABS,ioos:station:wmo:42050:1,2007-11-03T10:30:00Z,28.8425,-94.2433,2.0,229.9887149,20.00204989,-99999.0,'11111222,11111222,99999999' 
TABS,ioos:station:wmo:42050:1,2007-11-03T11:00:00Z,28.8425,-94.2433,2.0,224.9996843,19.99697977,-99999.0,'11111222,11111222,99999999' 
TABS,ioos:station:wmo:42050:1,2007-11-03T11:30:00Z,28.8425,-94.2433,2.0,224.9996843,19.99697977,-99999.0,'11111222,11111222,99999999' 
TABS,ioos:station:wmo:42050:1,2007-11-03T12:00:00Z,28.8425,-94.2433,2.0,224.9996843,18.00293865,-99999.0,'11111222,11111222,99999999' 
TABS,ioos:station:wmo:42050:1,2007-11-03T12:30:00Z,28.8425,-94.2433,2.0,227.9982728,15.0041361,-99999.0,'11111222,11111222,99999999' 
TABS,ioos:station:wmo:42050:1,2007-11-03T13:00:00Z,28.8425,-94.2433,2.0,233.0030743,18.99404644,-99999.0,'11111222,11111222,99999999' 
TABS,ioos:station:wmo:42050:1,2007-11-03T13:30:00Z,28.8425,-94.2433,2.0,230.9924596,16.99982647,-99999.0,'11111222,11111222,99999999' 
TABS,ioos:station:wmo:42050:1,2007-11-03T14:00:00Z,28.8425,-94.2433,2.0,230.9874664,15.997181,-99999.0,'11111222,11111222,99999999' 
TABS,ioos:station:wmo:42050:1,2007-11-03T14:30:00Z,28.8425,-94.2433,2.0,233.0151892,18.002036,-99999.0,'11111222,11111222,99999999' 
TABS,ioos:station:wmo:42050:1,2007-11-03T15:00:00Z,28.8425,-94.2433,2.0,230.9924596,16.99982647,-99999.0,'11111222,11111222,99999999' 
TABS,ioos:station:wmo:42050:1,2007-11-03T15:30:00Z,28.8425,-94.2433,2.0,234.0083994,20.99846899,-99999.0,'11111222,11111222,99999999' 
TABS,ioos:station:wmo:42050:1,2007-11-03T16:00:00Z,28.8425,-94.2433,2.0,228.0027858,22.00002045,-99999.0,'11111222,11111222,99999999' 
TABS,ioos:station:wmo:42050:1,2007-11-03T16:30:00Z,28.8425,-94.2433,2.0,224.9996843,22.99511252,-99999.0,'11111222,11111222,99999999' 
TABS,ioos:station:wmo:42050:1,2007-11-03T17:00:00Z,28.8425,-94.2433,2.0,220.9993794,21.99511082,-99999.0,'11111222,11111222,99999999' 
TABS,ioos:station:wmo:42050:1,2007-11-03T17:30:00Z,28.8425,-94.2433,2.0,221.9996826,19.99609962,-99999.0,'11111222,11111222,99999999' 
TABS,ioos:station:wmo:42050:1,2007-11-03T18:00:00Z,28.8425,-94.2433,2.0,228.0171968,17.99961111,-99999.0,'11111222,11111222,99999999' 
TABS,ioos:station:wmo:42050:1,2007-11-03T18:30:00Z,28.8425,-94.2433,2.0,224.9996843,16.99884702,-99999.0,'11111222,11111222,99999999' 
TABS,ioos:station:wmo:42050:1,2007-11-03T19:30:00Z,28.8425,-94.2433,2.0,223.9975925,19.00286557,-99999.0,'11111222,11111222,99999999' 
TABS,ioos:station:wmo:42050:1,2007-11-03T20:00:00Z,28.8425,-94.2433,2.0,220.992192,16.99798223,-99999.0,'11111222,11111222,99999999' 
TABS,ioos:station:wmo:42050:1,2007-11-03T20:30:00Z,28.8425,-94.2433,2.0,221.9821718,17.99961111,-99999.0,'11111222,11111222,99999999' 
TABS,ioos:station:wmo:42050:1,2007-11-03T21:00:00Z,28.8425,-94.2433,2.0,223.9867038,17.99868051,-99999.0,'11111222,11111222,99999999' 
TABS,ioos:station:wmo:42050:1,2007-11-03T21:30:00Z,28.8425,-94.2433,2.0,224.9996843,11.00258152,-99999.0,'11111222,11111222,99999999' 
TABS,ioos:station:wmo:42050:1,2007-11-03T22:00:00Z,28.8425,-94.2433,2.0,230.0140735,11.0022634,-99999.0,'11111222,11111222,99999999' 
TABS,ioos:station:wmo:42050:1,2007-11-03T22:30:00Z,28.8425,-94.2433,2.0,234.0053793,14.00363524,-99999.0,'11111222,11111222,99999999' 
TABS,ioos:station:wmo:42050:1,2007-11-03T23:00:00Z,28.8425,-94.2433,2.0,234.0053793,14.00363524,-99999.0,'11111222,11111222,99999999' 
TABS,ioos:station:wmo:42050:1,2007-11-03T23:30:00Z,28.8425,-94.2433,2.0,242.0153049,13.00001538,-99999.0,'11111222,11111222,99999999' 
TABS,ioos:station:wmo:42050:1,2007-11-04T12:00:00Z,28.8425,-94.2433,2.0,205.988426,12.00382023,-99999.0,'11111222,11111222,99999999' 
TABS,ioos:station:wmo:42050:1,2007-11-04T13:00:00Z,28.8425,-94.2433,2.0,201.0029631,11.99708298,-99999.0,'11111222,11111222,99999999' 
TABS,ioos:station:wmo:42050:1,2007-11-04T13:30:00Z,28.8425,-94.2433,2.0,206.984178,10.99727694,-99999.0,'11111222,11111222,99999999' 
TABS,ioos:station:wmo:42050:1,2007-11-04T14:00:00Z,28.8425,-94.2433,2.0,201.0029631,11.99708298,-99999.0,'11111222,11111222,99999999' 
TABS,ioos:station:wmo:42050:1,2007-11-04T14:30:00Z,28.8425,-94.2433,2.0,200.0045975,9.003221646,-99999.0,'11133222,11111222,99999999' 
TABS,ioos:station:wmo:42050:1,2007-11-04T15:00:00Z,28.8425,-94.2433,2.0,204.0029237,10.00522364,-99999.0,'11111222,11111222,99999999' 
TABS,ioos:station:wmo:42050:1,2007-11-04T15:30:00Z,28.8425,-94.2433,2.0,251.9995466,9.999409983,-99999.0,'11133222,11111222,99999999' 
TABS,ioos:station:wmo:42050:1,2007-11-04T16:00:00Z,28.8425,-94.2433,2.0,200.0045975,9.003221646,-99999.0,'11133222,11111222,99999999' 
TABS,ioos:station:wmo:42050:1,2007-11-04T16:30:00Z,28.8425,-94.2433,2.0,192.0064698,9.998739921,-99999.0,'11133222,11111222,99999999' 
TABS,ioos:station:wmo:42050:1,2007-11-04T17:00:00Z,28.8425,-94.2433,2.0,191.0033047,11.00227249,-99999.0,'11111222,11111222,99999999' 
TABS,ioos:station:wmo:42050:1,2007-11-04T17:30:00Z,28.8425,-94.2433,2.0,185.9812799,11.99530742,-99999.0,'11111222,11111222,99999999' 
TABS,ioos:station:wmo:42050:1,2007-11-04T18:00:00Z,28.8425,-94.2433,2.0,188.9979223,14.00232124,-99999.0,'11111222,11111222,99999999' 
TABS,ioos:station:wmo:42050:1,2007-11-04T18:30:00Z,28.8425,-94.2433,2.0,179.9997895,16.0,-99999.0,'11111222,11111222,99999999' 
TABS,ioos:station:wmo:42050:1,2007-11-04T19:00:00Z,28.8425,-94.2433,2.0,192.0064698,14.99810988,-99999.0,'11111222,11111222,99999999' 
TABS,ioos:station:wmo:42050:1,2007-11-04T19:30:00Z,28.8425,-94.2433,2.0,196.9948021,17.99588008,-99999.0,'11111222,11111222,99999999' 
TABS,ioos:station:wmo:42050:1,2007-11-04T20:00:00Z,28.8425,-94.2433,2.0,195.0003945,15.99506486,-99999.0,'11111222,11111222,99999999' 
TABS,ioos:station:wmo:42050:1,2007-11-04T20:30:00Z,28.8425,-94.2433,2.0,193.9819696,18.00342745,-99999.0,'11111222,11111222,99999999' 
TABS,ioos:station:wmo:42050:1,2007-11-04T21:00:00Z,28.8425,-94.2433,2.0,192.0018241,18.99523361,-99999.0,'11111222,11111222,99999999' 
TABS,ioos:station:wmo:42050:1,2007-11-04T21:30:00Z,28.8425,-94.2433,2.0,196.9948021,17.99588008,-99999.0,'11111222,11111222,99999999' 
TABS,ioos:station:wmo:42050:1,2007-11-04T22:00:00Z,28.8425,-94.2433,2.0,205.998448,19.00303397,-99999.0,'11111222,11111222,99999999' 
TABS,ioos:station:wmo:42050:1,2007-11-04T22:30:00Z,28.8425,-94.2433,2.0,202.9914493,16.00110621,-99999.0,'11111222,11111222,99999999' 
TABS,ioos:station:wmo:42050:1,2007-11-04T23:00:00Z,28.8425,-94.2433,2.0,202.9893406,17.99960555,-99999.0,'11111222,11111222,99999999' 
TABS,ioos:station:wmo:42050:1,2007-11-04T23:30:00Z,28.8425,-94.2433,2.0,208.9912534,14.99957666,-99999.0,'11111222,11111222,99999999' 
TABS,ioos:station:wmo:42050:1,2007-11-05T00:00:00Z,28.8425,-94.2433,2.0,206.9811175,16.00172491,-99999.0,'11111222,11111222,99999999' 
TABS,ioos:station:wmo:42050:1,2007-11-05T00:30:00Z,28.8425,-94.2433,2.0,213.0011619,15.00017667,-99999.0,'11111222,11111222,99999999' 
TABS,ioos:station:wmo:42050:1,2007-11-05T01:00:00Z,28.8425,-94.2433,2.0,220.9738696,13.99990357,-99999.0,'11111222,11111222,99999999' 
TABS,ioos:station:wmo:42050:1,2007-11-05T01:30:00Z,28.8425,-94.2433,2.0,220.9738696,13.99990357,-99999.0,'11111222,11111222,99999999' 
TABS,ioos:station:wmo:42050:1,2007-11-05T02:00:00Z,28.8425,-94.2433,2.0,230.0045228,11.99584095,-99999.0,'11111222,11111222,99999999' 
TABS,ioos:station:wmo:42050:1,2007-11-05T02:30:00Z,28.8425,-94.2433,2.0,233.0063239,12.99603016,-99999.0,'11111222,11111222,99999999' 
TABS,ioos:station:wmo:42050:1,2007-11-05T03:00:00Z,28.8425,-94.2433,2.0,244.9953296,11.00106358,-99999.0,'11111222,11111222,99999999' 
TABS,ioos:station:wmo:42050:1,2007-11-05T03:30:00Z,28.8425,-94.2433,2.0,238.9754246,12.99959999,-99999.0,'11111222,11111222,99999999' 
TABS,ioos:station:wmo:42050:1,2007-11-05T04:00:00Z,28.8425,-94.2433,2.0,250.9911323,12.00460745,-99999.0,'11111222,11111222,99999999' 
TABS,ioos:station:wmo:42050:1,2007-11-05T04:30:00Z,28.8425,-94.2433,2.0,247.9935649,12.99689963,-99999.0,'11111222,11111222,99999999' 
TABS,ioos:station:wmo:42050:1,2007-11-05T05:00:00Z,28.8425,-94.2433,2.0,242.0249146,9.998249847,-99999.0,'11133222,11111222,99999999' 
TABS,ioos:station:wmo:42050:1,2007-11-05T05:30:00Z,28.8425,-94.2433,2.0,245.0288882,9.00142211,-99999.0,'11133222,11111222,99999999' 
TABS,ioos:station:wmo:42050:1,2007-11-05T06:00:00Z,28.8425,-94.2433,2.0,215.0520815,6.999521412,-99999.0,'11133222,11111222,99999999' 
TABS,ioos:station:wmo:42050:1,2007-11-05T06:30:00Z,28.8425,-94.2433,2.0,216.0036736,8.999027725,-99999.0,'11133222,11111222,99999999' 
TABS,ioos:station:wmo:42050:1,2007-11-05T07:00:00Z,28.8425,-94.2433,2.0,221.9821718,8.999805553,-99999.0,'11133222,11111222,99999999' 
TABS,ioos:station:wmo:42050:1,2007-11-05T07:30:00Z,28.8425,-94.2433,2.0,204.0029237,10.00522364,-99999.0,'11111222,11111222,99999999' 
TABS,ioos:station:wmo:42050:1,2007-11-05T08:00:00Z,28.8425,-94.2433,2.0,197.999822,9.999409983,-99999.0,'11133222,11111222,99999999' 
TABS,ioos:station:wmo:42050:1,2007-11-05T08:30:00Z,28.8425,-94.2433,2.0,200.0045975,9.003221646,-99999.0,'11133222,11111222,99999999' 
TABS,ioos:station:wmo:42050:1,2007-11-05T09:00:00Z,28.8425,-94.2433,2.0,38.99818657,8.994203689,-99999.0,'11133222,11111222,99999999' 
TABS,ioos:station:wmo:42050:1,2007-11-05T09:30:00Z,28.8425,-94.2433,2.0,189.044765,6.997006503,-99999.0,'11133222,11111222,99999999' 
TABS,ioos:station:wmo:42050:1,2007-11-05T10:00:00Z,28.8425,-94.2433,2.0,179.9997895,8.0,-99999.0,'11133222,11111222,99999999' 
TABS,ioos:station:wmo:42050:1,2007-11-05T10:30:00Z,28.8425,-94.2433,2.0,194.9911286,8.002362151,-99999.0,'11133222,11111222,99999999' 
TABS,ioos:station:wmo:42050:1,2007-11-05T11:00:00Z,28.8425,-94.2433,2.0,179.9997895,10.0,-99999.0,'11111222,11111222,99999999' 
TABS,ioos:station:wmo:42050:1,2007-11-05T11:30:00Z,28.8425,-94.2433,2.0,179.9997895,9.0,-99999.0,'11133222,11111222,99999999' 
TABS,ioos:station:wmo:42050:1,2007-11-05T12:00:00Z,28.8425,-94.2433,2.0,179.9997895,6.0,-99999.0,'11133222,11111222,99999999' 
TABS,ioos:station:wmo:42050:1,2007-11-05T12:30:00Z,28.8425,-94.2433,2.0,179.9997895,9.0,-99999.0,'11133222,11111222,99999999' 
TABS,ioos:station:wmo:42050:1,2007-11-05T13:00:00Z,28.8425,-94.2433,2.0,179.9997895,7.0,-99999.0,'11133222,11111222,99999999' 
TABS,ioos:station:wmo:42050:1,2007-11-05T13:30:00Z,28.8425,-94.2433,2.0,166.9890892,7.995254843,-99999.0,'11133222,11111222,99999999' 
TABS,ioos:station:wmo:42050:1,2007-11-05T14:00:00Z,28.8425,-94.2433,2.0,157.9857336,8.003524224,-99999.0,'11133222,11111222,99999999' 
TABS,ioos:station:wmo:42050:1,2007-11-05T14:30:00Z,28.8425,-94.2433,2.0,185.0014422,6.996642052,-99999.0,'11133222,11111222,99999999' 
TABS,ioos:station:wmo:42050:1,2007-11-05T15:00:00Z,28.8425,-94.2433,2.0,150.0182203,6.003332408,-99999.0,'11133222,11111222,99999999' 
TABS,ioos:station:wmo:42050:1,2007-11-05T15:30:00Z,28.8425,-94.2433,2.0,154.9730607,6.996942189,-99999.0,'11133222,11111222,99999999' 
TABS,ioos:station:wmo:42050:1,2007-11-05T16:00:00Z,28.8425,-94.2433,2.0,155.0348215,4.004122875,-99999.0,'11133222,11111222,99999999' 
TABS,ioos:station:wmo:42050:1,2007-11-05T16:30:00Z,28.8425,-94.2433,2.0,159.028128,5.001299831,-99999.0,'11133222,11111222,99999999' 
TABS,ioos:station:wmo:42050:1,2007-11-05T17:00:00Z,28.8425,-94.2433,2.0,134.9998948,5.996265504,-99999.0,'11133222,11111222,99999999' 
TABS,ioos:station:wmo:42050:1,2007-11-05T17:30:00Z,28.8425,-94.2433,2.0,134.9998948,7.000357134,-99999.0,'11133222,11111222,99999999' 
TABS,ioos:station:wmo:42050:1,2007-11-05T18:00:00Z,28.8425,-94.2433,2.0,130.9972462,8.002755775,-99999.0,'11133222,11111222,99999999' 
TABS,ioos:station:wmo:42050:1,2007-11-05T19:00:00Z,28.8425,-94.2433,2.0,163.9757174,9.998484885,-99999.0,'11133222,11111222,99999999' 
TABS,ioos:station:wmo:42050:1,2007-11-05T19:30:00Z,28.8425,-94.2433,2.0,134.9998948,19.99697977,-99999.0,'11111222,11111222,99999999' 
TABS,ioos:station:wmo:42050:1,2007-11-05T20:00:00Z,28.8425,-94.2433,2.0,143.9893483,20.00224987,-99999.0,'11111222,11111222,99999999' 
TABS,ioos:station:wmo:42050:1,2007-11-05T20:30:00Z,28.8425,-94.2433,2.0,145.9826143,16.99906468,-99999.0,'11111222,11111222,99999999' 
TABS,ioos:station:wmo:42050:1,2007-11-05T21:00:00Z,28.8425,-94.2433,2.0,149.9957611,16.99789399,-99999.0,'11111222,11111222,99999999' 
TABS,ioos:station:wmo:42050:1,2007-11-05T21:30:00Z,28.8425,-94.2433,2.0,144.0055897,14.00363524,-99999.0,'11111222,11111222,99999999' 
TABS,ioos:station:wmo:42050:1,2007-11-05T22:00:00Z,28.8425,-94.2433,2.0,153.0078662,15.00443268,-99999.0,'11111222,11111222,99999999' 